Tracking 18793 objects as of 24-September-2017
HD Live streaming from Space Station
objects crossing your sky now

COSMOS 2328

Track COSMOS 2328 now!
10-day predictions
COSMOS 2328 is classified as:


NORAD ID: 23790
Int'l Code: 1996-009D
Perigee: 1,413.1 km
Apogee: 1,426.3 km
Inclination: 82.6 °
Period: 114.1 minutes
Semi major axis: 7790 km
RCS: 1.1353 m2 (large)
Launch date: February 19, 1996
Source: Commonwealth of Independent States (former USSR) (CIS)
Launch site: PLESETSK MISSILE AND SPACE COMPLEX (PKMTR)
aabbcc
Your satellite tracking list
Your tracking list is empty





NASA's NSSDC Master Catalog

Two Line Element Set (TLE):
1 23790U 96009D   17266.80826735 +.00000028 +00000-0 +94741-4 0  9995
2 23790 082.5810 195.0593 0008475 079.3631 280.8415 12.62528397995110
Source of the keplerian elements: AFSPC